Notices

What's New in latest Release from April 7th, 2021:

- Updated Glossary, including Speed of Maximum Gust, and Total Hourly Precipitation

- Updated national and regional climate services offices contacts and prices information

- Addition of station inventory lists for 1981-2010, 1971-2000, and 1961-1990 Normals.

If you haven't already, please take our survey and provide feedback about our website: https://eccc.sondage-survey.ca/f/LanguageSelection.aspx?s=442ca660-fcf1-47c0-95a9-59707d6fd709

Hourly Data Report for February 12, 2021

OTTAWA INTL A
ONTARIO
Current Station Operator: NAVCAN

45°19'00.000" N
75°40'00.000" W
114.90 m
6106001
71628
YOW

Download Data

Hourly Data (February 2021)
Hourly Data Report for February 12, 2021
TIME
LST
Temp Definition
°C
Dew Point Definition
°C
Rel Hum Definition
%
Precip. Amount Definition
mm

Wind Dir Definition
10's deg

Wind Spd Definition
km/h
Visibility Definition
km
Stn Press Definition
kPa
Hmdx Definition


Wind Chill Definition


Weather Definition


00:00 -17.2 -24.3 54   33 23 24.1 101.65   -28 LegendNANA
01:00 -18.0 -24.6 57   33 18 24.1 101.70   -27 Clear
02:00 -19.2 -25.1 60   31 20 24.1 101.74   -29 LegendNANA
03:00 -19.2 -25.5 58   33 17 24.1 101.76   -29 LegendNANA
04:00 -19.3 -25.8 57   33 17 24.1 101.73   -29 Mostly Cloudy
05:00 -20.9 -25.9 65   32 12 24.1 101.73   -29 LegendNANA
06:00 -21.0 -25.9 65   30 9 24.1 101.79   -28 LegendNANA
07:00 -22.9 -27.1 69   31 13 24.1 101.73   -32 Mainly Clear
08:00 -22.3 -26.3 70   26 10 24.1 101.81   -30 LegendNANA
09:00 -21.2 -26.2 65   27 7 24.1 101.82   -27 LegendNANA
10:00 -19.6 -25.5 60   29 9 24.1 101.79   -26 Mostly Cloudy
11:00 -18.2 -24.6 58   30 10 24.1 101.71   -25 LegendNANA
12:00 -17.4 -24.5 55   25 13 24.1 101.64   -25 LegendNANA
13:00 -16.4 -23.7 54   24 8 24.1 101.58   -22 Mostly Cloudy
14:00 -15.3 -23.2 52   25 14 24.1 101.55   -23 LegendNANA
15:00 -14.8 -22.9 51   25 17 24.1 101.52   -23 LegendNANA
16:00 -14.7 -22.9 50   25 11 24.1 101.50   -21 Mainly Clear
17:00 -15.7 -23.4 52   25 13 24.1 101.52   -23 LegendNANA
18:00 -15.1 -22.3 54   29 14 24.1 101.54   -23 LegendNANA
19:00 -15.8 -23.2 54   29 14 24.1 101.51   -24 Mainly Clear
20:00 -16.5 -23.0 58   27 9 24.1 101.57   -23 LegendNANA
21:00 -16.9 -22.7 61   28 9 24.1 101.59   -23 LegendNANA
22:00 -17.5 -23.6 60   31 12 24.1 101.63   -25 Mainly Clear
23:00 -18.5 -23.5 65   28 8 24.1 101.67   -24 LegendNANA

Notes on Data Quality.

Legend

  • E = Estimated
  • M = Missing
  • NA = Not Available*
  • [empty] = Indicates an unobserved value
Date modified: